This is the latest recevied weather packets stored in our database for station/object WA4IKQ. If no packets are shown the sender has not sent any weather packets the latest 10 day(s).
| Time | Temp. | Humidity | Pressure | Rain* | Wind** | Luminosity | Snow |
|---|---|---|---|---|---|---|---|
| 1777778053 | 22.22° C | 88% | 1012.7 hPa | 0 mm | 0.89 m/s, 221° | - | - |
| 1777778024 | 22.22° C | 88% | 1012.7 hPa | 0 mm | 0.45 m/s, 180° | - | - |
| 1777777754 | 22.22° C | 88% | 1012.7 hPa | 0 mm | 0.45 m/s, 180° | - | - |
| 1777777698 | 22.22° C | 88% | 1012.6 hPa | 0 mm | 2.24 m/s, 256° | - | - |
| 1777777459 | 22.22° C | 88% | 1012.6 hPa | 0 mm | 2.24 m/s, 256° | - | - |
| 1777777338 | 22.22° C | 87% | 1012.7 hPa | 0 mm | 0.89 m/s, 226° | - | - |
| 1777777218 | 22.22° C | 87% | 1012.6 hPa | 0 mm | 1.79 m/s, 229° | - | - |
| 1777777149 | 22.22° C | 87% | 1012.7 hPa | 0 mm | 0.89 m/s, 226° | - | - |
| 1777776849 | 22.22° C | 87% | 1012.6 hPa | 0 mm | 1.79 m/s, 229° | - | - |
| 1777776700 | 22.22° C | 87% | 1012.6 hPa | 0 mm | 1.34 m/s, 217° | - | - |
| 1777776258 | 22.22° C | 87% | 1012.6 hPa | 0 mm | 1.34 m/s, 217° | - | - |
| 1777776245 | 22.22° C | 87% | 1012.5 hPa | 0 mm | 0.89 m/s, 255° | - | - |
| 1777775950 | 22.22° C | 87% | 1012.5 hPa | 0 mm | 0.89 m/s, 255° | - | - |
| 1777775767 | 22.22° C | 87% | 1012.4 hPa | 0 mm | 2.24 m/s, 180° | - | - |
| 1777775352 | 22.22° C | 87% | 1012.4 hPa | 0 mm | 2.24 m/s, 180° | - | - |
| 1777774450 | 22.22° C | 87% | 1012.2 hPa | 0 mm | 0.89 m/s, 212° | - | - |
| 1777774152 | 22.22° C | 87% | 1012 hPa | 0 mm | 1.34 m/s, 226° | - | - |
| 1777773974 | 22.22° C | 87% | 1011.8 hPa | 0 mm | 1.79 m/s, 173° | - | - |
| 1777773501 | 22.22° C | 87% | 1011.5 hPa | 0 mm | 2.24 m/s, 169° | - | - |
| 1777772653 | 22.22° C | 86% | 1011.2 hPa | 0 mm | 1.34 m/s, 217° | - | - |
| 1777769769 | 22.22° C | 86% | 1010.6 hPa | 0 mm | 1.79 m/s, 195° | - | - |
| 1777768619 | 22.22° C | 86% | 1010.9 hPa | 0 mm | 1.79 m/s, 212° | - | - |
| 1777768430 | 22.22° C | 86% | 1010.9 hPa | 0 mm | 1.34 m/s, 208° | - | - |
| 1777767788 | 22.22° C | 86% | 1010.7 hPa | 0 mm | 1.34 m/s, 228° | - | - |
| 1777767379 | 21.67° C | 86% | 1010.5 hPa | 0 mm | 1.79 m/s, 243° | - | - |
* Rain latest hour (hover to see other rain measurements)
** Current wind speed in m/s (hover to see current wind gust speed)